Flag for Rwanda Weather past 2 weeks in Gitarama, Rwanda

Now
72 °F

Scattered clouds.


Feels Like: 72 °F
Forecast: 62 / 76 °F
Wind: 7 mph from South

Location: Kigali Airport

Current Time: Apr 21, 2015 at 3:44:30 PM

Latest Report: Apr 21, 2015 at 3:00 PM


Visibility: N/A

Pressure: 30.21 "Hg

Humidity: 78%

Dew point: 64 °F

Location of GitaramaLocation

Historic Weather in Gitarama — Graph

°F

Gitarama temperature yesterday

Maximum temperature yesterday: 82 °F (at 2:00 PM)
Minimum temperature yesterday: 61 °F (at 5:30 AM)
Average temperature yesterday: 70 °F

Past Weeks' High & Low Weather Summary

 TemperatureHumidityPressure
High84 °F (Apr 8, 3:00 PM)100% (Apr 7, 2:00 AM)30.27 "Hg (Apr 7, 2:00 AM)
Low61 °F (Apr 8, 3:30 AM)45% (Apr 8, 5:00 PM)29.98 "Hg (Apr 8, 4:00 PM)
Average70 °F87%30.13 "Hg
* Reported Apr 6 2:00 PM — Apr 21 2:30 PM, Gitarama, Weather by CustomWeather, © 2015

Note: Actual official high and low records may vary slightly from our data, if they occured in-between our weather recording intervals... More about our weather records

Advertising

Gitarama weather history for previous 24 hours

 ConditionsComfort  
Time TempWeatherWind HumidityBarometerVisibility
2:30 PM
Tue, Apr 21
70 °FScattered clouds.7 mph88%30.18 "HgN/A
2:00 PM68 °FScattered clouds.7 mph88%30.18 "HgN/A
1:30 PM68 °FScattered clouds.7 mph88%30.18 "HgN/A
1:00 PM68 °FLight rain. Partly sunny.No wind88%30.21 "HgN/A
12:30 PM70 °FLight rain. Broken clouds.No wind83%30.21 "HgN/A
12:00 PM72 °FLight rain. Broken clouds.No wind83%30.21 "HgN/A
11:30 AM70 °FLight rain. Broken clouds.3 mph88%30.24 "HgN/A
11:00 AM68 °FLight rain. Broken clouds.5 mph88%30.24 "HgN/A
10:30 AM66 °FLight rain. Partly sunny.No wind94%30.24 "HgN/A
10:00 AM64 °FLight rain. Partly sunny.No wind100%30.24 "HgN/A
9:30 AM64 °FLight rain. Partly sunny.3 mph100%30.27 "HgN/A
9:00 AM63 °FLight rain. Partly sunny.5 mph100%30.27 "HgN/A
8:30 AM63 °FLight rain. Partly sunny.6 mph100%30.24 "HgN/A
8:00 AM63 °FPartly sunny.3 mph100%30.24 "HgN/A
7:30 AM63 °FPartly sunny.6 mph100%30.21 "Hg5 mi
7:00 AM63 °FPartly sunny.7 mph100%30.21 "Hg5 mi
6:30 AM63 °FPartly sunny.7 mph100%30.18 "Hg5 mi
5:00 AM64 °FLight rain. Partly cloudy.3 mph100%30.12 "Hg4 mi
4:30 AM64 °FPassing clouds.3 mph100%30.12 "HgN/A
4:00 AM64 °FPassing clouds.3 mph100%30.12 "HgN/A
3:30 AM64 °FPassing clouds.No wind100%30.12 "HgN/A
3:00 AM64 °FPassing clouds.3 mph100%30.12 "HgN/A
2:30 AM64 °FPassing clouds.3 mph100%30.12 "HgN/A
2:00 AM64 °FPassing clouds.3 mph100%30.12 "HgN/A
1:30 AM64 °FPassing clouds.3 mph100%30.12 "HgN/A
1:00 AM64 °FPassing clouds.No wind100%30.12 "HgN/A
12:30 AM64 °FPassing clouds.No wind100%30.15 "HgN/A
11:00 PM
Mon, Apr 20
64 °FPassing clouds.3 mph100%30.18 "HgN/A
10:30 PM64 °FPassing clouds.3 mph100%30.15 "HgN/A
10:00 PM64 °FPassing clouds.3 mph100%30.15 "HgN/A
9:30 PM64 °FPassing clouds.6 mph100%30.15 "Hg5 mi
7:00 PM64 °FThunderstorms. Passing clouds.No wind100%30.09 "Hg5 mi
6:30 PM64 °FThunderstorms. Passing clouds.6 mph100%30.09 "Hg5 mi
6:00 PM64 °FThunderstorms. Passing clouds.6 mph100%30.09 "Hg5 mi
5:30 PM68 °FThunderstorms. Partly sunny.18 mph100%30.09 "Hg4 mi
5:00 PM77 °FThunderstorms. Partly sunny.18 mph69%30.04 "Hg5 mi
4:30 PM81 °FScattered clouds.7 mph54%30.01 "HgN/A
4:00 PM81 °FScattered clouds.7 mph54%30.01 "HgN/A
3:30 PM82 °FScattered clouds.9 mph55%30.01 "HgN/A
3:00 PM82 °FScattered clouds.9 mph55%30.01 "HgN/A
Weather by CustomWeather, © 2015

See weather overviewHow to use our weather pages